Time,TemperatureF,DewpointF,PressureIn,WindDirection,WindDirectionDegrees,WindSpeedMPH,WindSpeedGustMPH,Humidity,HourlyPrecipIn,Conditions,Clouds,dailyrainin,SolarRadiationWatts/m^2,SoftwareType,DateUTC
2013-05-08 00:01:00,57.5,53.6,30.00,East,95,0.0,0.0,87,0.00,,,0.00,0.0,WUHU216DAVISVP2,2013-05-08 07:01:00,
2013-05-08 00:06:00,57.5,53.6,30.00,East,95,0.0,0.0,87,0.00,,,0.00,0.0,WUHU216DAVISVP2,2013-05-08 07:06:00,
2013-05-08 00:11:00,57.6,53.7,30.00,East,95,1.0,3.0,87,0.00,,,0.00,0.0,WUHU216DAVISVP2,2013-05-08 07:11:00,
2013-05-08 00:16:00,57.7,53.5,30.00,East,95,0.0,3.0,86,0.00,,,0.00,0.0,WUHU216DAVISVP2,2013-05-08 07:16:00,
2013-05-08 00:21:00,57.8,53.6,30.00,East,95,0.0,3.0,86,0.00,,,0.00,0.0,WUHU216DAVISVP2,2013-05-08 07:21:00,
2013-05-08 00:26:00,57.9,53.7,30.00,East,95,0.0,3.0,86,0.00,,,0.00,0.0,WUHU216DAVISVP2,2013-05-08 07:26:00,
2013-05-08 00:31:00,57.8,53.6,30.00,East,95,0.0,2.0,86,0.00,,,0.00,0.0,WUHU216DAVISVP2,2013-05-08 07:31:00,
2013-05-08 00:36:00,57.6,53.7,30.00,East,95,0.0,2.0,87,0.00,,,0.00,0.0,WUHU216DAVISVP2,2013-05-08 07:36:00,
2013-05-08 00:41:00,57.1,53.3,30.00,East,95,0.0,1.0,87,0.00,,,0.00,0.0,WUHU216DAVISVP2,2013-05-08 07:41:00,
2013-05-08 00:46:00,56.7,53.2,30.00,East,95,0.0,1.0,88,0.00,,,0.00,0.0,WUHU216DAVISVP2,2013-05-08 07:46:00,
2013-05-08 00:51:00,56.4,52.9,30.00,East,95,0.0,1.0,88,0.00,,,0.00,0.0,WUHU216DAVISVP2,2013-05-08 07:51:00,
2013-05-08 00:56:00,56.1,52.6,30.00,East,95,0.0,1.0,88,0.00,,,0.00,0.0,WUHU216DAVISVP2,2013-05-08 07:56:00,
2013-05-08 01:01:00,56.0,52.8,30.00,East,95,0.0,1.0,89,0.00,,,0.00,0.0,WUHU216DAVISVP2,2013-05-08 08:01:00,
2013-05-08 01:06:00,55.9,52.7,30.01,East,95,0.0,0.0,89,0.00,,,0.00,0.0,WUHU216DAVISVP2,2013-05-08 08:06:00,
2013-05-08 01:11:00,55.9,52.7,30.01,East,95,0.0,1.0,89,0.00,,,0.00,0.0,WUHU216DAVISVP2,2013-05-08 08:11:00,
2013-05-08 01:16:00,56.0,52.8,30.01,East,95,0.0,1.0,89,0.00,,,0.00,0.0,WUHU216DAVISVP2,2013-05-08 08:16:00,
2013-05-08 01:21:00,56.0,52.8,30.01,East,95,2.0,2.0,89,0.00,,,0.00,0.0,WUHU216DAVISVP2,2013-05-08 08:21:00,
2013-05-08 01:26:00,56.0,53.1,30.00,East,95,1.0,3.0,90,0.00,,,0.00,0.0,WUHU216DAVISVP2,2013-05-08 08:26:00,
2013-05-08 01:31:00,56.0,53.1,30.00,East,95,0.0,3.0,90,0.00,,,0.00,0.0,WUHU216DAVISVP2,2013-05-08 08:31:00,
2013-05-08 01:36:00,56.0,53.1,30.01,East,95,0.0,3.0,90,0.00,,,0.00,0.0,WUHU216DAVISVP2,2013-05-08 08:36:00,
2013-05-08 01:41:00,56.0,52.8,30.00,East,95,0.0,3.0,89,0.00,,,0.00,0.0,WUHU216DAVISVP2,2013-05-08 08:41:00,
2013-05-08 01:46:00,56.0,52.8,30.00,East,95,1.0,3.0,89,0.00,,,0.00,0.0,WUHU216DAVISVP2,2013-05-08 08:46:00,
2013-05-08 01:51:00,56.1,52.9,30.01,East,95,0.0,2.0,89,0.00,,,0.00,0.0,WUHU216DAVISVP2,2013-05-08 08:51:00,
2013-05-08 01:56:00,56.1,52.9,30.00,East,95,0.0,2.0,89,0.00,,,0.00,0.0,WUHU216DAVISVP2,2013-05-08 08:56:00,
2013-05-08 02:01:00,56.2,53.0,30.00,East,95,0.0,2.0,89,0.00,,,0.00,0.0,WUHU216DAVISVP2,2013-05-08 09:01:00,
2013-05-08 02:06:00,56.1,52.9,30.00,East,95,0.0,1.0,89,0.00,,,0.00,0.0,WUHU216DAVISVP2,2013-05-08 09:06:00,
2013-05-08 02:11:00,56.1,52.9,30.00,East,95,0.0,0.0,89,0.00,,,0.00,0.0,WUHU216DAVISVP2,2013-05-08 09:11:00,
2013-05-08 02:16:00,56.2,53.0,30.01,East,95,0.0,0.0,89,0.00,,,0.00,0.0,WUHU216DAVISVP2,2013-05-08 09:16:00,
2013-05-08 02:21:00,56.3,53.4,30.01,East,95,0.0,2.0,90,0.00,,,0.00,0.0,WUHU216DAVISVP2,2013-05-08 09:21:00,
2013-05-08 02:26:00,56.4,53.2,30.01,East,95,2.0,3.0,89,0.00,,,0.00,0.0,WUHU216DAVISVP2,2013-05-08 09:26:00,
2013-05-08 02:31:00,56.6,53.4,30.01,East,95,2.0,3.0,89,0.00,,,0.00,0.0,WUHU216DAVISVP2,2013-05-08 09:31:00,
2013-05-08 02:36:00,56.8,53.6,30.01,East,95,1.0,5.0,89,0.00,,,0.00,0.0,WUHU216DAVISVP2,2013-05-08 09:36:00,
2013-05-08 02:41:00,56.8,53.3,30.01,East,95,3.0,5.0,88,0.00,,,0.00,0.0,WUHU216DAVISVP2,2013-05-08 09:41:00,
2013-05-08 02:46:00,56.9,53.1,30.01,East,95,5.0,6.0,87,0.00,,,0.00,0.0,WUHU216DAVISVP2,2013-05-08 09:46:00,
2013-05-08 02:51:00,57.1,53.3,30.01,East,95,3.0,6.0,87,0.00,,,0.00,0.0,WUHU216DAVISVP2,2013-05-08 09:51:00,
2013-05-08 02:56:00,57.3,53.5,30.00,East,95,3.0,6.0,87,0.00,,,0.00,0.0,WUHU216DAVISVP2,2013-05-08 09:56:00,
2013-05-08 03:01:00,57.3,53.5,30.00,East,95,3.0,6.0,87,0.00,,,0.00,0.0,WUHU216DAVISVP2,2013-05-08 10:01:00,
2013-05-08 03:06:00,57.3,53.5,30.00,East,95,5.0,6.0,87,0.00,,,0.00,0.0,WUHU216DAVISVP2,2013-05-08 10:06:00,
2013-05-08 03:11:00,57.3,53.8,30.01,East,95,1.0,6.0,88,0.00,,,0.00,0.0,WUHU216DAVISVP2,2013-05-08 10:11:00,
2013-05-08 03:16:00,57.3,53.8,30.01,East,95,5.0,6.0,88,0.00,,,0.00,0.0,WUHU216DAVISVP2,2013-05-08 10:16:00,
2013-05-08 03:21:00,57.4,53.5,30.01,East,95,2.0,6.0,87,0.00,,,0.00,0.0,WUHU216DAVISVP2,2013-05-08 10:21:00,
2013-05-08 03:26:00,57.5,53.6,30.01,East,95,5.0,6.0,87,0.00,,,0.00,0.0,WUHU216DAVISVP2,2013-05-08 10:26:00,
2013-05-08 03:31:00,57.7,53.5,30.01,East,95,2.0,6.0,86,0.00,,,0.00,0.0,WUHU216DAVISVP2,2013-05-08 10:31:00,
2013-05-08 03:36:00,57.7,53.2,30.01,East,95,2.0,6.0,85,0.00,,,0.00,0.0,WUHU216DAVISVP2,2013-05-08 10:36:00,
2013-05-08 03:41:00,57.8,53.0,30.01,East,95,5.0,6.0,84,0.00,,,0.00,0.0,WUHU216DAVISVP2,2013-05-08 10:41:00,
2013-05-08 03:46:00,58.0,52.9,30.01,East,95,3.0,6.0,83,0.00,,,0.00,0.0,WUHU216DAVISVP2,2013-05-08 10:46:00,
2013-05-08 03:51:00,58.0,52.6,30.01,East,95,3.0,6.0,82,0.00,,,0.00,0.0,WUHU216DAVISVP2,2013-05-08 10:51:00,
2013-05-08 03:56:00,58.1,52.7,30.01,East,95,0.0,6.0,82,0.00,,,0.00,0.0,WUHU216DAVISVP2,2013-05-08 10:56:00,
2013-05-08 04:01:00,58.1,53.0,30.01,East,95,0.0,6.0,83,0.00,,,0.00,0.0,WUHU216DAVISVP2,2013-05-08 11:01:00,
2013-05-08 04:06:00,58.2,52.8,30.01,East,95,5.0,6.0,82,0.00,,,0.00,0.0,WUHU216DAVISVP2,2013-05-08 11:06:00,
2013-05-08 04:11:00,58.2,52.8,30.01,East,95,5.0,6.0,82,0.00,,,0.00,0.0,WUHU216DAVISVP2,2013-05-08 11:11:00,
2013-05-08 04:16:00,58.2,52.8,30.01,East,95,5.0,6.0,82,0.00,,,0.00,0.0,WUHU216DAVISVP2,2013-05-08 11:16:00,
2013-05-08 04:21:00,58.2,52.8,30.01,East,95,3.0,7.0,82,0.00,,,0.00,0.0,WUHU216DAVISVP2,2013-05-08 11:21:00,
2013-05-08 04:26:00,58.1,53.0,30.01,East,95,5.0,7.0,83,0.00,,,0.00,0.0,WUHU216DAVISVP2,2013-05-08 11:26:00,
2013-05-08 04:31:00,58.1,53.0,30.01,East,95,3.0,7.0,83,0.00,,,0.00,0.0,WUHU216DAVISVP2,2013-05-08 11:31:00,
2013-05-08 04:36:00,58.1,53.0,30.01,East,95,3.0,7.0,83,0.00,,,0.00,0.0,WUHU216DAVISVP2,2013-05-08 11:36:00,
2013-05-08 04:41:00,58.1,53.0,30.01,East,95,2.0,6.0,83,0.00,,,0.00,0.0,WUHU216DAVISVP2,2013-05-08 11:41:00,
2013-05-08 04:46:00,58.0,52.9,30.01,East,95,2.0,6.0,83,0.00,,,0.00,0.0,WUHU216DAVISVP2,2013-05-08 11:46:00,
2013-05-08 04:51:00,57.9,53.1,30.02,East,95,0.0,6.0,84,0.00,,,0.00,0.0,WUHU216DAVISVP2,2013-05-08 11:51:00,
2013-05-08 04:56:00,57.9,52.8,30.02,East,95,0.0,6.0,83,0.00,,,0.00,0.0,WUHU216DAVISVP2,2013-05-08 11:56:00,
2013-05-08 05:01:00,58.1,53.0,30.02,East,95,0.0,6.0,83,0.00,,,0.00,0.0,WUHU216DAVISVP2,2013-05-08 12:01:00,
2013-05-08 05:06:00,58.2,53.1,30.02,East,95,0.0,5.0,83,0.00,,,0.00,0.0,WUHU216DAVISVP2,2013-05-08 12:06:00,
2013-05-08 05:11:00,58.2,52.8,30.02,East,95,1.0,3.0,82,0.00,,,0.00,0.0,WUHU216DAVISVP2,2013-05-08 12:11:00,
2013-05-08 05:16:00,58.2,53.1,30.02,East,95,0.0,3.0,83,0.00,,,0.00,0.0,WUHU216DAVISVP2,2013-05-08 12:16:00,
2013-05-08 05:21:00,58.2,52.8,30.02,East,95,0.0,3.0,82,0.00,,,0.00,0.0,WUHU216DAVISVP2,2013-05-08 12:21:00,
2013-05-08 05:26:00,58.3,52.9,30.02,East,95,0.0,3.0,82,0.00,,,0.00,0.0,WUHU216DAVISVP2,2013-05-08 12:26:00,
2013-05-08 05:31:00,58.3,52.9,30.02,East,95,0.0,2.0,82,0.00,,,0.00,0.0,WUHU216DAVISVP2,2013-05-08 12:31:00,
2013-05-08 05:36:00,58.3,52.9,30.02,East,95,0.0,2.0,82,0.00,,,0.00,0.0,WUHU216DAVISVP2,2013-05-08 12:36:00,
2013-05-08 05:41:00,58.3,52.9,30.03,East,95,0.0,1.0,82,0.00,,,0.00,0.0,WUHU216DAVISVP2,2013-05-08 12:41:00,
2013-05-08 05:46:00,58.3,52.9,30.03,East,95,0.0,1.0,82,0.00,,,0.00,0.0,WUHU216DAVISVP2,2013-05-08 12:46:00,
2013-05-08 05:51:00,58.4,53.0,30.03,East,95,0.0,1.0,82,0.00,,,0.00,0.0,WUHU216DAVISVP2,2013-05-08 12:51:00,
2013-05-08 05:56:00,58.4,53.3,30.03,East,95,0.0,1.0,83,0.00,,,0.00,0.0,WUHU216DAVISVP2,2013-05-08 12:56:00,
2013-05-08 06:01:00,58.4,53.6,30.03,East,95,0.0,1.0,84,0.00,,,0.00,0.0,WUHU216DAVISVP2,2013-05-08 13:01:00,
2013-05-08 06:06:00,58.4,53.9,30.03,East,95,0.0,1.0,85,0.00,,,0.00,0.0,WUHU216DAVISVP2,2013-05-08 13:06:00,
2013-05-08 06:11:00,58.4,53.9,30.03,East,95,0.0,1.0,85,0.00,,,0.00,5.0,WUHU216DAVISVP2,2013-05-08 13:11:00,
2013-05-08 06:16:00,58.3,53.5,30.03,East,95,0.0,1.0,84,0.00,,,0.00,7.0,WUHU216DAVISVP2,2013-05-08 13:16:00,
2013-05-08 06:21:00,58.3,53.5,30.03,East,95,0.0,1.0,84,0.00,,,0.00,11.0,WUHU216DAVISVP2,2013-05-08 13:21:00,
2013-05-08 06:26:00,58.4,53.6,30.03,East,95,0.0,1.0,84,0.00,,,0.00,18.0,WUHU216DAVISVP2,2013-05-08 13:26:00,
2013-05-08 06:31:00,58.5,53.7,30.03,East,95,0.0,1.0,84,0.00,,,0.00,19.0,WUHU216DAVISVP2,2013-05-08 13:31:00,
2013-05-08 06:36:00,58.5,53.7,30.03,East,95,0.0,1.0,84,0.00,,,0.00,21.0,WUHU216DAVISVP2,2013-05-08 13:36:00,
2013-05-08 06:41:00,58.6,53.8,30.03,East,95,0.0,1.0,84,0.00,,,0.00,19.0,WUHU216DAVISVP2,2013-05-08 13:41:00,
2013-05-08 06:46:00,58.6,53.5,30.04,East,95,1.0,2.0,83,0.00,,,0.00,12.0,WUHU216DAVISVP2,2013-05-08 13:46:00,
2013-05-08 06:51:00,58.7,53.6,30.04,East,95,1.0,5.0,83,0.00,,,0.00,11.0,WUHU216DAVISVP2,2013-05-08 13:51:00,
2013-05-08 06:56:00,58.7,53.6,30.04,East,95,0.0,5.0,83,0.00,,,0.00,14.0,WUHU216DAVISVP2,2013-05-08 13:56:00,
2013-05-08 07:01:00,58.8,53.7,30.04,East,95,0.0,5.0,83,0.00,,,0.00,19.0,WUHU216DAVISVP2,2013-05-08 14:01:00,
2013-05-08 07:06:00,58.9,53.4,30.04,East,95,1.0,5.0,82,0.00,,,0.00,23.0,WUHU216DAVISVP2,2013-05-08 14:06:00,
2013-05-08 07:11:00,58.9,53.1,30.04,East,95,1.0,5.0,81,0.00,,,0.00,32.0,WUHU216DAVISVP2,2013-05-08 14:11:00,
2013-05-08 07:16:00,58.9,53.4,30.04,East,95,0.0,5.0,82,0.00,,,0.00,40.0,WUHU216DAVISVP2,2013-05-08 14:16:00,
2013-05-08 07:21:00,59.0,53.2,30.04,East,95,0.0,5.0,81,0.00,,,0.00,42.0,WUHU216DAVISVP2,2013-05-08 14:21:00,
2013-05-08 07:26:00,59.0,53.5,30.04,East,95,0.0,5.0,82,0.00,,,0.00,44.0,WUHU216DAVISVP2,2013-05-08 14:26:00,
2013-05-08 07:31:00,59.1,53.6,30.04,East,95,1.0,2.0,82,0.00,,,0.00,42.0,WUHU216DAVISVP2,2013-05-08 14:31:00,
2013-05-08 07:36:00,59.2,53.4,30.05,East,95,0.0,2.0,81,0.00,,,0.00,37.0,WUHU216DAVISVP2,2013-05-08 14:36:00,
2013-05-08 07:41:00,59.3,53.5,30.05,East,95,0.0,1.0,81,0.00,,,0.00,46.0,WUHU216DAVISVP2,2013-05-08 14:41:00,
2013-05-08 07:46:00,59.4,53.9,30.05,East,95,0.0,1.0,82,0.00,,,0.00,56.0,WUHU216DAVISVP2,2013-05-08 14:46:00,
2013-05-08 07:51:00,59.5,53.7,30.05,East,95,0.0,0.0,81,0.00,,,0.00,65.0,WUHU216DAVISVP2,2013-05-08 14:51:00,
2013-05-08 07:56:00,59.6,53.5,30.05,East,95,0.0,0.0,80,0.00,,,0.00,79.0,WUHU216DAVISVP2,2013-05-08 14:56:00,
2013-05-08 08:01:00,59.8,53.7,30.05,ESE,117,0.0,0.0,80,0.00,,,0.00,90.0,WUHU216DAVISVP2,2013-05-08 15:01:00,
2013-05-08 08:06:00,60.0,53.9,30.05,ESE,117,0.0,0.0,80,0.00,,,0.00,83.0,WUHU216DAVISVP2,2013-05-08 15:06:00,
2013-05-08 08:11:00,60.2,53.7,30.05,ESE,117,0.0,0.0,79,0.00,,,0.00,84.0,WUHU216DAVISVP2,2013-05-08 15:11:00,
2013-05-08 08:16:00,60.3,53.8,30.05,ESE,117,0.0,0.0,79,0.00,,,0.00,93.0,WUHU216DAVISVP2,2013-05-08 15:16:00,
2013-05-08 08:21:00,60.4,53.6,30.05,ESE,117,1.0,1.0,78,0.00,,,0.00,107.0,WUHU216DAVISVP2,2013-05-08 15:21:00,
2013-05-08 08:26:00,60.6,54.1,30.06,ESE,117,0.0,1.0,79,0.00,,,0.00,149.0,WUHU216DAVISVP2,2013-05-08 15:26:00,
2013-05-08 08:30:00,60.8,54.0,30.06,ESE,117,0.0,1.0,78,0.00,,,0.00,158.0,WUHU216DAVISVP2,2013-05-08 15:30:00,
2013-05-08 08:35:00,61.1,53.9,30.06,SSE,147,1.0,3.0,77,0.00,,,0.00,146.0,WUHU216DAVISVP2,2013-05-08 15:35:00,
2013-05-08 08:40:00,61.3,53.8,30.06,SSW,202,0.0,4.0,76,0.00,,,0.00,151.0,WUHU216DAVISVP2,2013-05-08 15:40:00,
2013-05-08 08:45:00,61.4,53.9,30.06,SSW,202,0.0,4.0,76,0.00,,,0.00,153.0,WUHU216DAVISVP2,2013-05-08 15:45:00,
2013-05-08 08:50:00,61.5,53.6,30.06,SSW,202,0.0,4.0,75,0.00,,,0.00,127.0,WUHU216DAVISVP2,2013-05-08 15:50:00,
2013-05-08 08:55:00,61.6,53.3,30.07,SSW,202,0.0,4.0,74,0.00,,,0.00,113.0,WUHU216DAVISVP2,2013-05-08 15:55:00,
2013-05-08 09:00:00,61.8,53.2,30.07,SSW,202,0.0,3.0,73,0.00,,,0.00,123.0,WUHU216DAVISVP2,2013-05-08 16:00:00,
2013-05-08 09:05:00,62.0,53.0,30.07,SSW,202,1.0,3.0,72,0.00,,,0.00,121.0,WUHU216DAVISVP2,2013-05-08 16:05:00,
2013-05-08 09:10:00,62.1,52.7,30.07,SSW,202,1.0,3.0,71,0.00,,,0.00,109.0,WUHU216DAVISVP2,2013-05-08 16:10:00,
2013-05-08 09:15:00,62.2,52.8,30.07,WSW,248,0.0,3.0,71,0.00,,,0.00,97.0,WUHU216DAVISVP2,2013-05-08 16:15:00,
2013-05-08 09:20:00,62.2,52.1,30.07,WSW,245,2.0,3.0,69,0.00,,,0.00,86.0,WUHU216DAVISVP2,2013-05-08 16:20:00,
2013-05-08 09:25:00,62.2,52.4,30.07,WSW,245,0.0,3.0,70,0.00,,,0.00,77.0,WUHU216DAVISVP2,2013-05-08 16:25:00,
2013-05-08 09:30:00,62.3,52.5,30.07,WSW,245,0.0,3.0,70,0.00,,,0.00,79.0,WUHU216DAVISVP2,2013-05-08 16:30:00,
2013-05-08 09:35:00,62.3,52.5,30.07,WSW,245,1.0,3.0,70,0.00,,,0.00,98.0,WUHU216DAVISVP2,2013-05-08 16:35:00,
2013-05-08 09:40:00,62.2,53.2,30.07,WSW,245,0.0,3.0,72,0.00,,,0.00,98.0,WUHU216DAVISVP2,2013-05-08 16:40:00,
2013-05-08 09:45:00,62.0,53.0,30.07,WSW,245,2.0,3.0,72,0.00,,,0.00,88.0,WUHU216DAVISVP2,2013-05-08 16:45:00,
2013-05-08 09:50:00,61.9,53.3,30.07,WSW,245,2.0,4.0,73,0.00,,,0.00,93.0,WUHU216DAVISVP2,2013-05-08 16:50:00,
2013-05-08 09:55:00,61.8,54.3,30.07,WSW,246,0.0,4.0,76,0.00,,,0.00,114.0,WUHU216DAVISVP2,2013-05-08 16:55:00,
2013-05-08 10:00:00,61.7,54.2,30.07,WSW,245,0.0,4.0,76,0.00,,,0.00,123.0,WUHU216DAVISVP2,2013-05-08 17:00:00,
2013-05-08 10:05:00,61.6,54.1,30.07,WSW,245,0.0,4.0,76,0.00,,,0.00,128.0,WUHU216DAVISVP2,2013-05-08 17:05:00,
2013-05-08 10:10:00,61.5,54.3,30.07,WSW,245,0.0,3.0,77,0.00,,,0.00,134.0,WUHU216DAVISVP2,2013-05-08 17:10:00,
2013-05-08 10:15:00,61.5,54.3,30.07,WSW,245,2.0,4.0,77,0.00,,,0.00,151.0,WUHU216DAVISVP2,2013-05-08 17:15:00,
2013-05-08 10:20:00,61.5,54.0,30.07,WSW,244,1.0,4.0,76,0.00,,,0.00,144.0,WUHU216DAVISVP2,2013-05-08 17:20:00,
2013-05-08 10:25:00,61.6,54.4,30.07,SW,219,0.0,5.0,77,0.00,,,0.00,176.0,WUHU216DAVISVP2,2013-05-08 17:25:00,
2013-05-08 10:30:00,61.8,54.9,30.07,SW,219,1.0,5.0,78,0.00,,,0.00,207.0,WUHU216DAVISVP2,2013-05-08 17:30:00,
2013-05-08 10:35:00,62.2,54.6,30.07,SW,218,2.0,5.0,76,0.00,,,0.00,250.0,WUHU216DAVISVP2,2013-05-08 17:35:00,
2013-05-08 10:40:00,62.5,53.9,30.08,SW,218,0.0,4.0,73,0.00,,,0.00,287.0,WUHU216DAVISVP2,2013-05-08 17:40:00,
2013-05-08 10:45:00,62.7,54.0,30.08,SW,218,3.0,4.0,73,0.00,,,0.00,325.0,WUHU216DAVISVP2,2013-05-08 17:45:00,
2013-05-08 10:50:00,63.0,54.3,30.08,SW,218,2.0,4.0,73,0.00,,,0.00,362.0,WUHU216DAVISVP2,2013-05-08 17:50:00,
2013-05-08 10:55:00,63.1,54.1,30.08,SW,217,0.0,4.0,72,0.00,,,0.00,374.0,WUHU216DAVISVP2,2013-05-08 17:55:00,
2013-05-08 11:00:00,63.5,54.4,30.08,SSW,212,3.0,5.0,72,0.00,,,0.00,378.0,WUHU216DAVISVP2,2013-05-08 18:00:00,
2013-05-08 11:05:00,63.8,54.4,30.08,SSE,161,1.0,5.0,71,0.00,,,0.00,371.0,WUHU216DAVISVP2,2013-05-08 18:05:00,
2013-05-08 11:10:00,64.3,54.5,30.08,SE,143,1.0,5.0,70,0.00,,,0.00,364.0,WUHU216DAVISVP2,2013-05-08 18:10:00,
2013-05-08 11:15:00,64.5,54.3,30.08,SE,143,0.0,5.0,69,0.00,,,0.00,350.0,WUHU216DAVISVP2,2013-05-08 18:15:00,
2013-05-08 11:20:00,65.1,54.8,30.07,SE,143,0.0,4.0,69,0.00,,,0.00,353.0,WUHU216DAVISVP2,2013-05-08 18:20:00,
2013-05-08 11:25:00,65.3,54.6,30.07,SE,143,0.0,3.0,68,0.00,,,0.00,371.0,WUHU216DAVISVP2,2013-05-08 18:25:00,
2013-05-08 11:30:00,65.6,54.5,30.07,SE,143,1.0,2.0,67,0.00,,,0.00,401.0,WUHU216DAVISVP2,2013-05-08 18:30:00,
2013-05-08 11:35:00,65.8,54.7,30.07,SE,143,0.0,3.0,67,0.00,,,0.00,417.0,WUHU216DAVISVP2,2013-05-08 18:35:00,
2013-05-08 11:40:00,66.2,55.1,30.07,SE,143,0.0,3.0,67,0.00,,,0.00,452.0,WUHU216DAVISVP2,2013-05-08 18:40:00,
2013-05-08 11:45:00,66.2,54.7,30.07,West,272,2.0,4.0,66,0.00,,,0.00,475.0,WUHU216DAVISVP2,2013-05-08 18:45:00,
2013-05-08 11:50:00,66.1,54.6,30.07,WNW,298,3.0,5.0,66,0.00,,,0.00,508.0,WUHU216DAVISVP2,2013-05-08 18:50:00,
2013-05-08 11:55:00,66.3,54.8,30.07,WNW,298,5.0,6.0,66,0.00,,,0.00,589.0,WUHU216DAVISVP2,2013-05-08 18:55:00,
2013-05-08 12:00:00,66.3,54.8,30.06,WNW,302,2.0,6.0,66,0.00,,,0.00,628.0,WUHU216DAVISVP2,2013-05-08 19:00:00,
2013-05-08 12:05:00,66.5,55.0,30.06,WNW,302,3.0,6.0,66,0.00,,,0.00,675.0,WUHU216DAVISVP2,2013-05-08 19:05:00,
2013-05-08 12:10:00,67.0,55.9,30.06,WNW,303,4.0,7.0,67,0.00,,,0.00,680.0,WUHU216DAVISVP2,2013-05-08 19:10:00,
2013-05-08 12:15:00,66.9,54.9,30.06,WNW,295,1.0,7.0,65,0.00,,,0.00,643.0,WUHU216DAVISVP2,2013-05-08 19:15:00,
2013-05-08 12:20:00,67.4,55.8,30.06,WNW,302,3.0,7.0,66,0.00,,,0.00,805.0,WUHU216DAVISVP2,2013-05-08 19:20:00,
2013-05-08 12:25:00,67.4,55.0,30.06,WNW,291,2.0,7.0,64,0.00,,,0.00,652.0,WUHU216DAVISVP2,2013-05-08 19:25:00,
2013-05-08 12:30:00,67.5,55.1,30.05,West,277,2.0,7.0,64,0.00,,,0.00,1056.0,WUHU216DAVISVP2,2013-05-08 19:30:00,
2013-05-08 12:35:00,67.9,55.5,30.05,North,350,2.0,7.0,64,0.00,,,0.00,962.0,WUHU216DAVISVP2,2013-05-08 19:35:00,
2013-05-08 12:40:00,68.6,55.7,30.05,North,5,1.0,7.0,63,0.00,,,0.00,923.0,WUHU216DAVISVP2,2013-05-08 19:40:00,
2013-05-08 12:45:00,68.9,56.0,30.05,WNW,302,3.0,6.0,63,0.00,,,0.00,916.0,WUHU216DAVISVP2,2013-05-08 19:45:00,
2013-05-08 12:50:00,68.6,55.7,30.05,West,281,1.0,9.0,63,0.00,,,0.00,926.0,WUHU216DAVISVP2,2013-05-08 19:50:00,
2013-05-08 12:55:00,68.7,55.8,30.05,West,279,3.0,9.0,63,0.00,,,0.00,912.0,WUHU216DAVISVP2,2013-05-08 19:55:00,
2013-05-08 13:00:00,69.3,55.9,30.05,NNE,32,0.0,9.0,62,0.00,,,0.00,916.0,WUHU216DAVISVP2,2013-05-08 20:00:00,
2013-05-08 13:05:00,70.3,55.9,30.05,NW,319,3.0,9.0,60,0.00,,,0.00,921.0,WUHU216DAVISVP2,2013-05-08 20:05:00,
2013-05-08 13:10:00,70.9,56.0,30.04,North,351,6.0,8.0,59,0.00,,,0.00,911.0,WUHU216DAVISVP2,2013-05-08 20:10:00,
2013-05-08 13:15:00,70.8,55.5,30.04,NNE,17,6.0,8.0,58,0.00,,,0.00,912.0,WUHU216DAVISVP2,2013-05-08 20:15:00,
2013-05-08 13:20:00,70.6,56.7,30.04,WNW,294,7.0,8.0,61,0.00,,,0.00,905.0,WUHU216DAVISVP2,2013-05-08 20:20:00,
2013-05-08 13:25:00,70.8,55.9,30.04,WNW,301,3.0,10.0,59,0.00,,,0.00,902.0,WUHU216DAVISVP2,2013-05-08 20:25:00,
2013-05-08 13:30:00,71.0,55.6,30.04,WNW,301,5.0,11.0,58,0.00,,,0.00,907.0,WUHU216DAVISVP2,2013-05-08 20:30:00,
2013-05-08 13:35:00,71.4,56.3,30.04,NNW,336,4.0,11.0,59,0.00,,,0.00,904.0,WUHU216DAVISVP2,2013-05-08 20:35:00,
2013-05-08 13:40:00,71.4,55.9,30.03,NNW,327,5.0,11.0,58,0.00,,,0.00,902.0,WUHU216DAVISVP2,2013-05-08 20:40:00,
2013-05-08 13:45:00,71.8,56.2,30.03,WNW,301,2.0,10.0,58,0.00,,,0.00,900.0,WUHU216DAVISVP2,2013-05-08 20:45:00,
2013-05-08 13:50:00,71.8,56.2,30.03,NNW,328,5.0,11.0,58,0.00,,,0.00,891.0,WUHU216DAVISVP2,2013-05-08 20:50:00,
2013-05-08 13:55:00,72.2,56.6,30.03,NW,315,3.0,11.0,58,0.00,,,0.00,889.0,WUHU216DAVISVP2,2013-05-08 20:55:00,
2013-05-08 14:00:00,72.6,55.5,30.03,NNW,332,5.0,11.0,55,0.00,,,0.00,884.0,WUHU216DAVISVP2,2013-05-08 21:00:00,
2013-05-08 14:05:00,72.6,54.5,30.03,NW,309,8.0,11.0,53,0.00,,,0.00,881.0,WUHU216DAVISVP2,2013-05-08 21:05:00,
2013-05-08 14:10:00,72.8,54.1,30.03,NNW,340,8.0,10.0,52,0.00,,,0.00,858.0,WUHU216DAVISVP2,2013-05-08 21:10:00,
2013-05-08 14:15:00,73.3,53.5,30.03,NNE,26,7.0,11.0,50,0.00,,,0.00,874.0,WUHU216DAVISVP2,2013-05-08 21:15:00,
2013-05-08 14:20:00,73.7,54.0,30.03,NNW,344,6.0,11.0,50,0.00,,,0.00,861.0,WUHU216DAVISVP2,2013-05-08 21:20:00,
2013-05-08 14:25:00,74.0,54.8,30.02,NNW,342,7.0,11.0,51,0.00,,,0.00,853.0,WUHU216DAVISVP2,2013-05-08 21:25:00,
2013-05-08 14:30:00,73.4,54.3,30.02,NNW,330,7.0,13.0,51,0.00,,,0.00,854.0,WUHU216DAVISVP2,2013-05-08 21:30:00,
2013-05-08 14:35:00,73.2,55.2,30.02,NW,309,9.0,13.0,53,0.00,,,0.00,840.0,WUHU216DAVISVP2,2013-05-08 21:35:00,
2013-05-08 14:40:00,73.4,55.4,30.02,NNE,12,1.0,13.0,53,0.00,,,0.00,824.0,WUHU216DAVISVP2,2013-05-08 21:40:00,
2013-05-08 14:45:00,73.6,55.0,30.02,North,355,2.0,13.0,52,0.00,,,0.00,826.0,WUHU216DAVISVP2,2013-05-08 21:45:00,
2013-05-08 14:50:00,73.7,55.1,30.01,WNW,289,4.0,12.0,52,0.00,,,0.00,814.0,WUHU216DAVISVP2,2013-05-08 21:50:00,
2013-05-08 14:55:00,73.8,56.3,30.01,WNW,297,5.0,12.0,54,0.00,,,0.00,733.0,WUHU216DAVISVP2,2013-05-08 21:55:00,
2013-05-08 15:00:00,74.3,55.6,30.01,NNW,334,6.0,12.0,52,0.00,,,0.00,782.0,WUHU216DAVISVP2,2013-05-08 22:00:00,
2013-05-08 15:05:00,75.0,55.7,30.01,WNW,284,8.0,12.0,51,0.00,,,0.00,795.0,WUHU216DAVISVP2,2013-05-08 22:05:00,
2013-05-08 15:10:00,74.2,55.6,30.01,WNW,297,6.0,11.0,52,0.00,,,0.00,782.0,WUHU216DAVISVP2,2013-05-08 22:10:00,
2013-05-08 15:15:00,74.0,54.8,30.01,WNW,296,5.0,12.0,51,0.00,,,0.00,770.0,WUHU216DAVISVP2,2013-05-08 22:15:00,
2013-05-08 15:20:00,74.4,55.6,30.01,NW,319,6.0,12.0,52,0.00,,,0.00,758.0,WUHU216DAVISVP2,2013-05-08 22:20:00,
2013-05-08 15:25:00,74.6,55.3,30.00,NW,310,4.0,12.0,51,0.00,,,0.00,742.0,WUHU216DAVISVP2,2013-05-08 22:25:00,
2013-05-08 15:30:00,74.4,55.6,30.00,West,280,4.0,12.0,52,0.00,,,0.00,731.0,WUHU216DAVISVP2,2013-05-08 22:30:00,
2013-05-08 15:35:00,74.6,55.3,30.00,WNW,298,8.0,12.0,51,0.00,,,0.00,693.0,WUHU216DAVISVP2,2013-05-08 22:35:00,
2013-05-08 15:40:00,75.1,55.3,30.00,WNW,300,4.0,12.0,50,0.00,,,0.00,719.0,WUHU216DAVISVP2,2013-05-08 22:40:00,
2013-05-08 15:45:00,75.4,56.1,30.00,NW,315,2.0,12.0,51,0.00,,,0.00,691.0,WUHU216DAVISVP2,2013-05-08 22:45:00,
2013-05-08 15:50:00,75.4,56.1,29.99,NW,313,6.0,12.0,51,0.00,,,0.00,686.0,WUHU216DAVISVP2,2013-05-08 22:50:00,
2013-05-08 15:55:00,75.5,56.2,29.99,WNW,299,9.0,12.0,51,0.00,,,0.00,680.0,WUHU216DAVISVP2,2013-05-08 22:55:00,
2013-05-08 16:00:00,74.9,55.1,29.99,NNE,24,4.0,12.0,50,0.00,,,0.00,670.0,WUHU216DAVISVP2,2013-05-08 23:00:00,
2013-05-08 16:05:00,75.4,56.1,29.99,NW,318,7.0,12.0,51,0.00,,,0.00,650.0,WUHU216DAVISVP2,2013-05-08 23:05:00,
2013-05-08 16:10:00,75.1,55.8,29.99,WNW,294,3.0,11.0,51,0.00,,,0.00,647.0,WUHU216DAVISVP2,2013-05-08 23:10:00,
2013-05-08 16:15:00,75.4,56.1,29.99,WNW,302,5.0,10.0,51,0.00,,,0.00,601.0,WUHU216DAVISVP2,2013-05-08 23:15:00,
2013-05-08 16:20:00,75.7,55.7,29.99,West,271,4.0,12.0,50,0.00,,,0.00,613.0,WUHU216DAVISVP2,2013-05-08 23:20:00,
2013-05-08 16:25:00,75.7,55.2,29.99,WNW,294,7.0,12.0,49,0.00,,,0.00,603.0,WUHU216DAVISVP2,2013-05-08 23:25:00,
2013-05-08 16:30:00,75.3,54.9,29.99,NW,305,1.0,12.0,49,0.00,,,0.00,596.0,WUHU216DAVISVP2,2013-05-08 23:30:00,
2013-05-08 16:35:00,76.1,55.0,29.99,NW,311,4.0,12.0,48,0.00,,,0.00,573.0,WUHU216DAVISVP2,2013-05-08 23:35:00,
2013-05-08 16:40:00,76.3,55.8,29.99,NW,313,5.0,12.0,49,0.00,,,0.00,585.0,WUHU216DAVISVP2,2013-05-08 23:40:00,
2013-05-08 16:45:00,76.4,55.3,29.99,NW,320,3.0,11.0,48,0.00,,,0.00,563.0,WUHU216DAVISVP2,2013-05-08 23:45:00,
2013-05-08 16:50:00,76.4,54.7,29.98,NW,319,1.0,11.0,47,0.00,,,0.00,555.0,WUHU216DAVISVP2,2013-05-08 23:50:00,
2013-05-08 16:55:00,76.5,55.4,29.98,West,278,6.0,10.0,48,0.00,,,0.00,519.0,WUHU216DAVISVP2,2013-05-08 23:55:00,
2013-05-08 17:00:00,76.1,55.0,29.98,West,280,8.0,10.0,48,0.00,,,0.00,501.0,WUHU216DAVISVP2,2013-05-09 00:00:00,
2013-05-08 17:05:00,75.6,55.2,29.98,WNW,298,6.0,10.0,49,0.00,,,0.00,476.0,WUHU216DAVISVP2,2013-05-09 00:05:00,
2013-05-08 17:10:00,76.1,55.0,29.98,NNW,329,3.0,10.0,48,0.00,,,0.00,471.0,WUHU216DAVISVP2,2013-05-09 00:10:00,
2013-05-08 17:15:00,76.6,54.9,29.98,NW,305,4.0,10.0,47,0.00,,,0.00,466.0,WUHU216DAVISVP2,2013-05-09 00:15:00,
2013-05-08 17:20:00,76.3,54.6,29.98,NW,322,4.0,9.0,47,0.00,,,0.00,322.0,WUHU216DAVISVP2,2013-05-09 00:20:00,
2013-05-08 17:25:00,75.8,54.8,29.98,North,355,2.0,9.0,48,0.00,,,0.00,195.0,WUHU216DAVISVP2,2013-05-09 00:25:00,
2013-05-08 17:30:00,75.7,55.3,29.98,NW,314,4.0,9.0,49,0.00,,,0.00,269.0,WUHU216DAVISVP2,2013-05-09 00:30:00,
2013-05-08 17:35:00,75.1,54.6,29.99,NW,313,4.0,9.0,49,0.00,,,0.00,134.0,WUHU216DAVISVP2,2013-05-09 00:35:00,
2013-05-08 17:40:00,74.9,55.0,29.99,WNW,302,3.0,9.0,50,0.00,,,0.00,102.0,WUHU216DAVISVP2,2013-05-09 00:40:00,
2013-05-08 17:45:00,74.9,54.4,29.99,NW,319,2.0,9.0,49,0.00,,,0.00,91.0,WUHU216DAVISVP2,2013-05-09 00:45:00,
2013-05-08 17:50:00,74.9,54.4,29.99,NNW,327,6.0,9.0,49,0.00,,,0.00,86.0,WUHU216DAVISVP2,2013-05-09 00:50:00,
2013-05-08 17:55:00,74.6,54.7,29.98,NW,307,4.0,9.0,50,0.00,,,0.00,79.0,WUHU216DAVISVP2,2013-05-09 00:55:00,
2013-05-08 18:00:00,74.3,54.5,29.98,NW,315,5.0,9.0,50,0.00,,,0.00,102.0,WUHU216DAVISVP2,2013-05-09 01:00:00,
2013-05-08 18:05:00,74.2,55.0,29.98,WNW,302,8.0,8.0,51,0.00,,,0.00,93.0,WUHU216DAVISVP2,2013-05-09 01:05:00,
2013-05-08 18:10:00,73.9,54.7,29.98,WNW,294,5.0,8.0,51,0.00,,,0.00,221.0,WUHU216DAVISVP2,2013-05-09 01:10:00,
2013-05-08 18:15:00,74.0,54.8,29.98,WNW,296,2.0,8.0,51,0.00,,,0.00,77.0,WUHU216DAVISVP2,2013-05-09 01:15:00,
2013-05-08 18:20:00,74.1,54.4,29.98,WNW,301,5.0,8.0,50,0.00,,,0.00,153.0,WUHU216DAVISVP2,2013-05-09 01:20:00,
2013-05-08 18:25:00,74.1,54.9,29.98,NW,313,5.0,8.0,51,0.00,,,0.00,105.0,WUHU216DAVISVP2,2013-05-09 01:25:00,
2013-05-08 18:30:00,73.9,54.2,29.98,WNW,300,5.0,8.0,50,0.00,,,0.00,69.0,WUHU216DAVISVP2,2013-05-09 01:30:00,
2013-05-08 18:35:00,73.8,54.6,29.99,WNW,292,2.0,8.0,51,0.00,,,0.00,160.0,WUHU216DAVISVP2,2013-05-09 01:35:00,
2013-05-08 18:40:00,73.8,55.2,29.99,NW,304,4.0,8.0,52,0.00,,,0.00,70.0,WUHU216DAVISVP2,2013-05-09 01:40:00,
2013-05-08 18:45:00,73.6,55.5,29.99,NW,306,2.0,8.0,53,0.00,,,0.00,90.0,WUHU216DAVISVP2,2013-05-09 01:45:00,
2013-05-08 18:50:00,73.4,55.7,29.99,WNW,300,3.0,6.0,54,0.00,,,0.00,49.0,WUHU216DAVISVP2,2013-05-09 01:50:00,
2013-05-08 18:55:00,73.1,55.5,29.99,NW,310,2.0,6.0,54,0.00,,,0.00,46.0,WUHU216DAVISVP2,2013-05-09 01:55:00,
2013-05-08 19:00:00,73.0,55.4,29.99,WNW,295,3.0,6.0,54,0.00,,,0.00,37.0,WUHU216DAVISVP2,2013-05-09 02:00:00,
2013-05-08 19:05:00,72.8,55.7,29.98,WNW,302,5.0,6.0,55,0.00,,,0.00,33.0,WUHU216DAVISVP2,2013-05-09 02:05:00,
2013-05-08 19:10:00,72.6,55.5,29.98,WNW,303,3.0,6.0,55,0.00,,,0.00,32.0,WUHU216DAVISVP2,2013-05-09 02:10:00,
2013-05-08 19:15:00,72.4,56.0,29.99,NW,316,3.0,6.0,56,0.00,,,0.00,30.0,WUHU216DAVISVP2,2013-05-09 02:15:00,
2013-05-08 19:20:00,72.2,55.8,29.99,WNW,298,3.0,6.0,56,0.00,,,0.00,26.0,WUHU216DAVISVP2,2013-05-09 02:20:00,
2013-05-08 19:25:00,72.0,55.6,29.98,NW,308,1.0,6.0,56,0.00,,,0.00,23.0,WUHU216DAVISVP2,2013-05-09 02:25:00,
2013-05-08 19:30:00,71.9,56.0,29.99,NW,308,1.0,5.0,57,0.00,,,0.00,21.0,WUHU216DAVISVP2,2013-05-09 02:30:00,
2013-05-08 19:35:00,71.7,55.8,29.98,NW,308,2.0,5.0,57,0.00,,,0.00,16.0,WUHU216DAVISVP2,2013-05-09 02:35:00,
2013-05-08 19:40:00,71.5,55.6,29.98,NW,308,2.0,5.0,57,0.00,,,0.00,12.0,WUHU216DAVISVP2,2013-05-09 02:40:00,
2013-05-08 19:45:00,71.3,55.4,29.98,NW,308,1.0,5.0,57,0.00,,,0.00,9.0,WUHU216DAVISVP2,2013-05-09 02:45:00,
2013-05-08 19:50:00,71.2,55.8,29.98,NW,308,2.0,5.0,58,0.00,,,0.00,5.0,WUHU216DAVISVP2,2013-05-09 02:50:00,
2013-05-08 19:55:00,71.1,55.6,29.98,NW,308,2.0,4.0,58,0.00,,,0.00,0.0,WUHU216DAVISVP2,2013-05-09 02:55:00,
2013-05-08 20:00:00,70.9,55.4,29.98,NW,308,1.0,4.0,58,0.00,,,0.00,0.0,WUHU216DAVISVP2,2013-05-09 03:00:00,
2013-05-08 20:05:00,70.8,55.5,29.98,NW,308,1.0,4.0,58,0.00,,,0.00,0.0,WUHU216DAVISVP2,2013-05-09 03:05:00,
2013-05-08 20:10:00,70.5,55.5,29.99,NW,308,1.0,4.0,59,0.00,,,0.00,0.0,WUHU216DAVISVP2,2013-05-09 03:10:00,
2013-05-08 20:15:00,70.3,55.9,29.99,NW,308,2.0,4.0,60,0.00,,,0.00,0.0,WUHU216DAVISVP2,2013-05-09 03:15:00,
2013-05-08 20:20:00,70.1,55.7,29.99,NW,308,0.0,4.0,60,0.00,,,0.00,0.0,WUHU216DAVISVP2,2013-05-09 03:20:00,
2013-05-08 20:25:00,70.0,56.1,29.99,NW,308,0.0,3.0,61,0.00,,,0.00,0.0,WUHU216DAVISVP2,2013-05-09 03:25:00,
2013-05-08 20:30:00,69.8,56.2,29.99,NW,308,0.0,3.0,62,0.00,,,0.00,0.0,WUHU216DAVISVP2,2013-05-09 03:30:00,
2013-05-08 20:35:00,69.6,56.2,29.99,NW,308,0.0,2.0,62,0.00,,,0.00,0.0,WUHU216DAVISVP2,2013-05-09 03:35:00,
2013-05-08 20:40:00,69.4,56.4,29.99,NW,308,0.0,0.0,63,0.00,,,0.00,0.0,WUHU216DAVISVP2,2013-05-09 03:40:00,
2013-05-08 20:45:00,69.3,57.2,29.99,NW,308,0.0,0.0,65,0.00,,,0.00,0.0,WUHU216DAVISVP2,2013-05-09 03:45:00,
2013-05-08 20:50:00,69.1,56.6,29.99,NW,308,0.0,0.0,64,0.00,,,0.00,0.0,WUHU216DAVISVP2,2013-05-09 03:50:00,
2013-05-08 20:55:00,68.8,57.6,29.99,NW,308,0.0,0.0,67,0.00,,,0.00,0.0,WUHU216DAVISVP2,2013-05-09 03:55:00,
2013-05-08 21:00:00,68.5,56.9,29.99,NW,308,0.0,0.0,66,0.00,,,0.00,0.0,WUHU216DAVISVP2,2013-05-09 04:00:00,
2013-05-08 21:01:00,68.5,56.9,29.99,NW,308,0.0,0.0,66,0.00,,,0.00,0.0,WUHU216DAVISVP2,2013-05-09 04:01:00,
2013-05-08 21:06:00,67.8,57.4,29.99,NW,308,0.0,0.0,69,0.00,,,0.00,0.0,WUHU216DAVISVP2,2013-05-09 04:06:00,
2013-05-08 21:11:00,66.8,57.6,29.99,NW,308,0.0,0.0,72,0.00,,,0.00,0.0,WUHU216DAVISVP2,2013-05-09 04:11:00,
2013-05-08 21:16:00,65.9,57.1,30.00,NW,308,0.0,0.0,73,0.00,,,0.00,0.0,WUHU216DAVISVP2,2013-05-09 04:16:00,
2013-05-08 21:21:00,65.9,57.1,30.00,NW,308,0.0,1.0,73,0.00,,,0.00,0.0,WUHU216DAVISVP2,2013-05-09 04:21:00,
2013-05-08 21:26:00,66.1,57.0,30.00,NW,308,0.0,1.0,72,0.00,,,0.00,0.0,WUHU216DAVISVP2,2013-05-09 04:26:00,
2013-05-08 21:31:00,66.1,57.3,30.00,NW,308,0.0,1.0,73,0.00,,,0.00,0.0,WUHU216DAVISVP2,2013-05-09 04:31:00,
2013-05-08 21:36:00,66.0,56.5,30.00,NW,308,0.0,1.0,71,0.00,,,0.00,0.0,WUHU216DAVISVP2,2013-05-09 04:36:00,
2013-05-08 21:41:00,66.2,56.7,30.00,NW,308,0.0,0.0,71,0.00,,,0.00,0.0,WUHU216DAVISVP2,2013-05-09 04:41:00,
2013-05-08 21:46:00,66.5,56.6,30.00,NW,308,0.0,0.0,70,0.00,,,0.00,0.0,WUHU216DAVISVP2,2013-05-09 04:46:00,
2013-05-08 21:51:00,66.7,56.8,30.00,NW,308,0.0,0.0,70,0.00,,,0.00,0.0,WUHU216DAVISVP2,2013-05-09 04:51:00,
2013-05-08 21:56:00,66.5,57.3,30.00,NW,308,0.0,0.0,72,0.00,,,0.00,0.0,WUHU216DAVISVP2,2013-05-09 04:56:00,
2013-05-08 22:01:00,66.1,57.3,30.01,NW,308,0.0,0.0,73,0.00,,,0.00,0.0,WUHU216DAVISVP2,2013-05-09 05:01:00,
2013-05-08 22:06:00,65.7,57.7,30.01,NW,308,0.0,0.0,75,0.00,,,0.00,0.0,WUHU216DAVISVP2,2013-05-09 05:06:00,
2013-05-08 22:11:00,65.4,57.0,30.01,NW,308,0.0,0.0,74,0.00,,,0.00,0.0,WUHU216DAVISVP2,2013-05-09 05:11:00,
2013-05-08 22:16:00,65.3,57.3,30.01,NW,308,0.0,0.0,75,0.00,,,0.00,0.0,WUHU216DAVISVP2,2013-05-09 05:16:00,
2013-05-08 22:21:00,65.5,57.1,30.01,NW,308,0.0,0.0,74,0.00,,,0.00,0.0,WUHU216DAVISVP2,2013-05-09 05:21:00,
2013-05-08 22:26:00,65.7,56.9,30.01,NW,308,0.0,0.0,73,0.00,,,0.00,0.0,WUHU216DAVISVP2,2013-05-09 05:26:00,
2013-05-08 22:31:00,65.8,57.0,30.01,NW,308,0.0,0.0,73,0.00,,,0.00,0.0,WUHU216DAVISVP2,2013-05-09 05:31:00,
2013-05-08 22:36:00,65.8,57.4,30.01,NW,308,0.0,0.0,74,0.00,,,0.00,0.0,WUHU216DAVISVP2,2013-05-09 05:36:00,
2013-05-08 22:41:00,65.7,57.3,30.01,NW,308,0.0,0.0,74,0.00,,,0.00,0.0,WUHU216DAVISVP2,2013-05-09 05:41:00,
2013-05-08 22:46:00,65.6,56.8,30.01,NW,308,0.0,0.0,73,0.00,,,0.00,0.0,WUHU216DAVISVP2,2013-05-09 05:46:00,
2013-05-08 22:51:00,65.6,56.5,30.01,NW,308,0.0,0.0,72,0.00,,,0.00,0.0,WUHU216DAVISVP2,2013-05-09 05:51:00,
2013-05-08 22:56:00,65.7,56.6,30.02,NW,308,0.0,0.0,72,0.00,,,0.00,0.0,WUHU216DAVISVP2,2013-05-09 05:56:00,
2013-05-08 23:01:00,65.6,56.8,30.02,NW,308,0.0,0.0,73,0.00,,,0.00,0.0,WUHU216DAVISVP2,2013-05-09 06:01:00,
2013-05-08 23:06:00,65.3,56.9,30.02,NW,308,0.0,0.0,74,0.00,,,0.00,0.0,WUHU216DAVISVP2,2013-05-09 06:06:00,
2013-05-08 23:11:00,64.9,57.3,30.02,NW,308,0.0,0.0,76,0.00,,,0.00,0.0,WUHU216DAVISVP2,2013-05-09 06:11:00,
2013-05-08 23:16:00,64.3,57.4,30.02,NW,308,0.0,0.0,78,0.00,,,0.00,0.0,WUHU216DAVISVP2,2013-05-09 06:16:00,
2013-05-08 23:21:00,64.0,57.1,30.02,NW,308,0.0,0.0,78,0.00,,,0.00,0.0,WUHU216DAVISVP2,2013-05-09 06:21:00,
2013-05-08 23:26:00,63.8,56.9,30.02,NW,308,0.0,0.0,78,0.00,,,0.00,0.0,WUHU216DAVISVP2,2013-05-09 06:26:00,
2013-05-08 23:31:00,63.8,56.5,30.02,NW,308,0.0,1.0,77,0.00,,,0.00,0.0,WUHU216DAVISVP2,2013-05-09 06:31:00,
2013-05-08 23:36:00,64.1,56.5,30.02,NW,308,0.0,1.0,76,0.00,,,0.00,0.0,WUHU216DAVISVP2,2013-05-09 06:36:00,
2013-05-08 23:41:00,64.1,56.5,30.02,NW,308,0.0,1.0,76,0.00,,,0.00,0.0,WUHU216DAVISVP2,2013-05-09 06:41:00,
2013-05-08 23:46:00,63.8,56.9,30.02,NW,308,0.0,1.0,78,0.00,,,0.00,0.0,WUHU216DAVISVP2,2013-05-09 06:46:00,
2013-05-08 23:51:00,63.4,56.8,30.03,NW,308,0.0,0.0,79,0.00,,,0.00,0.0,WUHU216DAVISVP2,2013-05-09 06:51:00,
2013-05-08 23:56:00,63.1,56.2,30.03,NW,308,0.0,0.0,78,0.00,,,0.00,0.0,WUHU216DAVISVP2,2013-05-09 06:56:00,